| time (UTC) | temp F | wind direction | speed knots | gust knots | rain 1hr in | rain 24hr in | rain mn in | humidity % | barometer mb |
| 20260505052013 | 64 | 210 | 5.2 | 13.9 | 0.00 | 0.00 | 0.00 | 65 | 1000.0 |
| 20260505051553 | 64 | 167 | 6.1 | 12.2 | 0.00 | 0.00 | 0.00 | 65 | 999.8 |
| 20260505051016 | 64 | 224 | 3.5 | 11.3 | 0.00 | 0.00 | 0.00 | 67 | 999.8 |
| 20260505050516 | 65 | 164 | 4.3 | 13.9 | 0.00 | 0.00 | 0.00 | 67 | 1000.1 |
| 20260505041533 | 64 | 190 | 5.2 | 13.9 | 0.00 | 0.00 | 0.00 | 69 | 999.4 |
| 20260505041014 | 64 | 203 | 5.2 | 11.3 | 0.00 | 0.00 | 0.00 | 70 | 999.5 |
| 20260505040515 | 64 | 171 | 5.2 | 11.3 | 0.00 | 0.00 | 0.00 | 70 | 999.6 |
| 20260505040033 | 64 | 184 | 5.2 | 12.2 | 0.00 | 0.00 | 0.00 | 70 | 999.6 |
| 20260505035515 | 63 | 203 | 4.3 | 12.2 | 0.00 | 0.00 | 0.00 | 71 | 999.6 |
| 20260505035015 | 63 | 194 | 7.0 | 12.2 | 0.00 | 0.00 | 0.00 | 71 | 999.7 |
| 20260505034532 | 63 | 197 | 4.3 | 10.4 | 0.00 | 0.00 | 0.00 | 71 | 999.7 |
| 20260505034016 | 63 | 202 | 4.3 | 10.4 | 0.00 | 0.00 | 0.00 | 72 | 999.6 |
| 20260505033516 | 63 | 172 | 4.3 | 10.4 | 0.00 | 0.00 | 0.00 | 72 | 999.7 |
| 20260505033032 | 63 | 231 | 3.5 | 11.3 | 0.00 | 0.00 | 0.00 | 73 | 999.6 |
| 20260505032515 | 63 | 207 | 4.3 | 11.3 | 0.00 | 0.00 | 0.00 | 73 | 999.6 |
| 20260505032015 | 62 | 224 | 3.5 | 7.8 | 0.00 | 0.00 | 0.00 | 73 | 999.7 |
| 20260505031531 | 62 | 198 | 3.5 | 9.6 | 0.00 | 0.00 | 0.00 | 73 | 999.8 |
| 20260505031015 | 63 | 200 | 3.5 | 9.6 | 0.00 | 0.00 | 0.00 | 74 | 1000.0 |
| 20260505030515 | 63 | 199 | 2.6 | 8.7 | 0.00 | 0.00 | 0.00 | 74 | 999.9 |
| 20260505030032 | 63 | 193 | 4.3 | 8.7 | 0.00 | 0.00 | 0.00 | 74 | 1000.0 |
| 20260505025516 | 63 | 195 | 3.5 | 8.7 | 0.00 | 0.00 | 0.00 | 74 | 1000.1 |
| 20260505025014 | 63 | 205 | 3.5 | 8.7 | 0.00 | 0.00 | 0.00 | 74 | 1000.1 |
| 20260505024532 | 63 | 214 | 3.5 | 10.4 | 0.00 | 0.00 | 0.00 | 74 | 1000.2 |
| 20260505024012 | 63 | 212 | 4.3 | 10.4 | 0.00 | 0.00 | 0.00 | 74 | 1000.1 |
| 20260505023516 | 62 | 217 | 4.3 | 11.3 | 0.00 | 0.00 | 0.00 | 74 | 1000.1 |
| 20260505023030 | 62 | 206 | 3.5 | 11.3 | 0.00 | 0.00 | 0.00 | 75 | 1000.0 |
| 20260505022516 | 62 | 207 | 4.3 | 10.4 | 0.00 | 0.00 | 0.00 | 75 | 1000.1 |
| 20260505022013 | 62 | 178 | 2.6 | 7.8 | 0.00 | 0.00 | 0.00 | 75 | 1000.0 |
| 20260505021530 | 62 | 172 | 2.6 | 6.1 | 0.00 | 0.00 | 0.00 | 76 | 999.9 |
| 20260505021015 | 62 | 218 | 3.5 | 7.8 | 0.00 | 0.00 | 0.00 | 75 | 1000.0 |
| 20260505020515 | 62 | 184 | 2.6 | 7.8 | 0.00 | 0.00 | 0.00 | 76 | 1000.1 |
| 20260505020030 | 62 | 179 | 2.6 | 7.8 | 0.00 | 0.00 | 0.00 | 75 | 1000.0 |
| 20260505015514 | 62 | 201 | 2.6 | 8.7 | 0.00 | 0.00 | 0.00 | 75 | 1000.0 |
| 20260505015014 | 62 | 214 | 3.5 | 8.7 | 0.00 | 0.00 | 0.00 | 75 | 999.9 |
| 20260505014532 | 62 | 198 | 2.6 | 8.7 | 0.00 | 0.00 | 0.00 | 75 | 1000.0 |
| 20260505014019 | 62 | 225 | 3.5 | 8.7 | 0.00 | 0.00 | 0.00 | 75 | 1000.1 |
| 20260505013512 | 62 | 187 | 3.5 | 8.7 | 0.00 | 0.00 | 0.00 | 75 | 999.9 |
| 20260505013031 | 62 | 170 | 3.5 | 8.7 | 0.00 | 0.00 | 0.00 | 75 | 1000.0 |
| 20260505012514 | 62 | 162 | 2.6 | 10.4 | 0.00 | 0.00 | 0.00 | 75 | 999.8 |
| 20260505012014 | 62 | 169 | 3.5 | 10.4 | 0.00 | 0.00 | 0.00 | 75 | 999.8 |
| 20260505011532 | 62 | 208 | 2.6 | 7.8 | 0.00 | 0.00 | 0.00 | 75 | 999.7 |
| 20260505011015 | 62 | 201 | 4.3 | 7.8 | 0.00 | 0.00 | 0.00 | 74 | 999.5 |
| 20260505010517 | 63 | 172 | 2.6 | 7.8 | 0.00 | 0.00 | 0.00 | 73 | 999.5 |
| 20260505010035 | 63 | 187 | 3.5 | 8.7 | 0.00 | 0.00 | 0.00 | 72 | 999.6 |
| 20260505005517 | 63 | 179 | 3.5 | 10.4 | 0.00 | 0.00 | 0.00 | 71 | 999.6 |
| 20260505005013 | 64 | 203 | 4.3 | 13.9 | 0.00 | 0.00 | 0.00 | 69 | 999.6 |
| 20260505004531 | 65 | 213 | 6.1 | 17.4 | 0.00 | 0.00 | 0.00 | 66 | 999.5 |
| 20260505004016 | 66 | 185 | 7.0 | 17.4 | 0.00 | 0.00 | 0.00 | 63 | 999.7 |
| 20260505003518 | 66 | 229 | 7.0 | 20.9 | 0.00 | 0.00 | 0.00 | 61 | 999.3 |
| 20260505003029 | 67 | 226 | 7.0 | 20.9 | 0.00 | 0.00 | 0.00 | 58 | 999.3 |
| 20260505002515 | 69 | 217 | 8.7 | 16.5 | 0.00 | 0.00 | 0.00 | 56 | 999.5 |
| 20260505002014 | 70 | 172 | 6.1 | 14.8 | 0.00 | 0.00 | 0.00 | 52 | 999.3 |
| 20260505001532 | 71 | 169 | 7.8 | 14.8 | 0.00 | 0.00 | 0.00 | 49 | 999.1 |
| 20260505001013 | 72 | 168 | 2.6 | 8.7 | 0.00 | 0.00 | 0.00 | 45 | 999.3 |
| 20260505000512 | 72 | 198 | 2.6 | 7.0 | 0.00 | 0.00 | 0.00 | 45 | 998.8 |
| 20260505000030 | 72 | 186 | 1.7 | 10.4 | 0.00 | 0.00 | 0.00 | 45 | 998.9 |
| 20260504235516 | 72 | 192 | 3.5 | 12.2 | 0.00 | 0.00 | 0.00 | 44 | 998.9 |
| 20260504235016 | 72 | 226 | 4.3 | 13.9 | 0.00 | 0.00 | 0.00 | 43 | 998.8 |
| 20260504234535 | 73 | 235 | 5.2 | 13.9 | 0.00 | 0.00 | 0.00 | 43 | 998.9 |
| 20260504234015 | 73 | 210 | 7.0 | 13.9 | 0.00 | 0.00 | 0.00 | 43 | 999.0 |
| 20260504233513 | 73 | 244 | 4.3 | 11.3 | 0.00 | 0.00 | 0.00 | 43 | 999.0 |
| 20260504233031 | 73 | 159 | 4.3 | 11.3 | 0.00 | 0.00 | 0.00 | 42 | 998.9 |
| 20260504232513 | 73 | 206 | 1.7 | 10.4 | 0.00 | 0.00 | 0.00 | 43 | 999.1 |
| 20260504232015 | 73 | 225 | 3.5 | 10.4 | 0.00 | 0.00 | 0.00 | 43 | 999.0 |
| 20260504231531 | 73 | 222 | 4.3 | 10.4 | 0.00 | 0.00 | 0.00 | 42 | 999.0 |
| 20260504231013 | 73 | 167 | 3.5 | 15.6 | 0.00 | 0.00 | 0.00 | 42 | 999.0 |
| 20260504230513 | 73 | 181 | 4.3 | 15.6 | 0.00 | 0.00 | 0.00 | 42 | 998.8 |
| 20260504230029 | 73 | 222 | 5.2 | 15.6 | 0.00 | 0.00 | 0.00 | 41 | 998.9 |
| 20260504225518 | 74 | 205 | 3.5 | 9.6 | 0.00 | 0.00 | 0.00 | 41 | 998.9 |
| 20260504225015 | 74 | 216 | 4.3 | 13.0 | 0.00 | 0.00 | 0.00 | 40 | 999.0 |
| 20260504224532 | 74 | 195 | 4.3 | 13.9 | 0.00 | 0.00 | 0.00 | 40 | 999.2 |
| 20260504224015 | 74 | 210 | 5.2 | 13.9 | 0.00 | 0.00 | 0.00 | 39 | 999.2 |
| 20260504223517 | 74 | 218 | 4.3 | 15.6 | 0.00 | 0.00 | 0.00 | 40 | 999.3 |
| 20260504223032 | 73 | 220 | 7.0 | 16.5 | 0.00 | 0.00 | 0.00 | 38 | 999.5 |
| 20260504222516 | 74 | 203 | 7.0 | 16.5 | 0.00 | 0.00 | 0.00 | 38 | 999.5 |
| 20260504222015 | 74 | 217 | 7.0 | 17.4 | 0.00 | 0.00 | 0.00 | 37 | 999.6 |
| 20260504221529 | 74 | 168 | 5.2 | 17.4 | 0.00 | 0.00 | 0.00 | 37 | 999.8 |
| 20260504221013 | 74 | 191 | 7.8 | 17.4 | 0.00 | 0.00 | 0.00 | 36 | 999.7 |
| 20260504220518 | 74 | 207 | 6.1 | 15.6 | 0.00 | 0.00 | 0.00 | 36 | 999.7 |
| 20260504220030 | 74 | 193 | 5.2 | 20.9 | 0.00 | 0.00 | 0.00 | 36 | 999.7 |
| 20260504215514 | 74 | 221 | 8.7 | 20.9 | 0.00 | 0.00 | 0.00 | 34 | 999.8 |
| 20260504215013 | 74 | 217 | 7.0 | 16.5 | 0.00 | 0.00 | 0.00 | 34 | 999.7 |
| 20260504214531 | 74 | 233 | 4.3 | 14.8 | 0.00 | 0.00 | 0.00 | 36 | 999.8 |
| 20260504214015 | 74 | 232 | 5.2 | 17.4 | 0.00 | 0.00 | 0.00 | 35 | 999.8 |
| 20260504213515 | 74 | 179 | 8.7 | 22.6 | 0.00 | 0.00 | 0.00 | 35 | 999.8 |
| 20260504213032 | 74 | 172 | 7.8 | 22.6 | 0.00 | 0.00 | 0.00 | 36 | 999.8 |
| 20260504212518 | 74 | 176 | 7.8 | 18.2 | 0.00 | 0.00 | 0.00 | 34 | 999.8 |
| 20260504212015 | 74 | 199 | 8.7 | 18.2 | 0.00 | 0.00 | 0.00 | 34 | 999.8 |
| 20260504211536 | 74 | 177 | 7.0 | 19.1 | 0.00 | 0.00 | 0.00 | 34 | 999.8 |
| 20260504211014 | 74 | 175 | 7.0 | 19.1 | 0.00 | 0.00 | 0.00 | 34 | 999.9 |
| 20260504210514 | 74 | 184 | 7.0 | 19.1 | 0.00 | 0.00 | 0.00 | 33 | 1000.0 |
| 20260504210040 | 74 | 214 | 8.7 | 15.6 | 0.00 | 0.00 | 0.00 | 30 | 1000.1 |
| 20260504205515 | 74 | 158 | 6.1 | 13.0 | 0.00 | 0.00 | 0.00 | 30 | 1000.1 |
| 20260504205014 | 74 | 205 | 5.2 | 14.8 | 0.00 | 0.00 | 0.00 | 31 | 1000.1 |
| 20260504204532 | 74 | 241 | 5.2 | 14.8 | 0.00 | 0.00 | 0.00 | 31 | 1000.2 |
| 20260504204016 | 74 | 212 | 5.2 | 16.5 | 0.00 | 0.00 | 0.00 | 30 | 1000.1 |
| 20260504203513 | 74 | 154 | 7.0 | 16.5 | 0.00 | 0.00 | 0.00 | 30 | 1000.3 |
| 20260504203049 | 74 | 224 | 7.8 | 18.2 | 0.00 | 0.00 | 0.00 | 30 | 1000.3 |
| 20260504202515 | 74 | 217 | 7.8 | 18.2 | 0.00 | 0.00 | 0.00 | 30 | 1000.2 |
| 20260504202015 | 74 | 218 | 9.6 | 17.4 | 0.00 | 0.00 | 0.00 | 30 | 1000.3 |
| 20260504201532 | 74 | 217 | 7.8 | 24.3 | 0.00 | 0.00 | 0.00 | 29 | 1000.2 |
| 20260504201023 | 74 | 232 | 10.4 | 24.3 | 0.00 | 0.00 | 0.00 | 29 | 1000.3 |
| 20260504200514 | 74 | 252 | 9.6 | 20.0 | 0.00 | 0.00 | 0.00 | 28 | 1000.2 |
| 20260504200030 | 74 | 226 | 7.0 | 19.1 | 0.00 | 0.00 | 0.00 | 27 | 1000.5 |
| 20260504195515 | 73 | 159 | 6.1 | 19.1 | 0.00 | 0.00 | 0.00 | 29 | 1000.5 |
| 20260504195013 | 73 | 224 | 9.6 | 20.0 | 0.00 | 0.00 | 0.00 | 26 | 1000.7 |
| 20260504194533 | 73 | 238 | 8.7 | 20.0 | 0.00 | 0.00 | 0.00 | 28 | 1000.6 |
| 20260504194013 | 73 | 212 | 10.4 | 20.0 | 0.00 | 0.00 | 0.00 | 26 | 1000.7 |
| 20260504193517 | 74 | 257 | 7.8 | 14.8 | 0.00 | 0.00 | 0.00 | 27 | 1000.6 |
| 20260504193031 | 74 | 199 | 6.1 | 18.2 | 0.00 | 0.00 | 0.00 | 26 | 1000.8 |
| 20260504192514 | 73 | 193 | 7.0 | 18.2 | 0.00 | 0.00 | 0.00 | 27 | 1000.7 |
| 20260504192012 | 73 | 217 | 8.7 | 18.2 | 0.00 | 0.00 | 0.00 | 26 | 1000.8 |
| 20260504191530 | 73 | 221 | 7.8 | 20.0 | 0.00 | 0.00 | 0.00 | 26 | 1000.7 |
| 20260504191017 | 73 | 210 | 8.7 | 20.9 | 0.00 | 0.00 | 0.00 | 27 | 1000.9 |
| 20260504190515 | 73 | 207 | 8.7 | 24.3 | 0.00 | 0.00 | 0.00 | 27 | 1001.0 |
| 20260504190030 | 73 | 221 | 13.9 | 24.3 | 0.00 | 0.00 | 0.00 | 27 | 1001.0 |
| 20260504185513 | 73 | 229 | 7.0 | 19.1 | 0.00 | 0.00 | 0.00 | 27 | 1000.9 |
| 20260504185015 | 73 | 226 | 10.4 | 22.6 | 0.00 | 0.00 | 0.00 | 27 | 1001.1 |
| 20260504184534 | 73 | 237 | 12.2 | 22.6 | 0.00 | 0.00 | 0.00 | 25 | 1001.1 |
| 20260504184016 | 73 | 221 | 11.3 | 19.1 | 0.00 | 0.00 | 0.00 | 27 | 1001.1 |
| 20260504183515 | 73 | 224 | 5.2 | 21.7 | 0.00 | 0.00 | 0.00 | 28 | 1001.1 |
| 20260504183034 | 73 | 183 | 8.7 | 21.7 | 0.00 | 0.00 | 0.00 | 28 | 1001.2 |
| 20260504182523 | 73 | 224 | 10.4 | 20.9 | 0.00 | 0.00 | 0.00 | 27 | 1001.1 |
| 20260504182017 | 73 | 244 | 10.4 | 20.9 | 0.00 | 0.00 | 0.00 | 27 | 1001.2 |
| 20260504181530 | 73 | 212 | 6.1 | 19.1 | 0.00 | 0.00 | 0.00 | 28 | 1001.1 |
| 20260504181015 | 73 | 176 | 7.0 | 19.1 | 0.00 | 0.00 | 0.00 | 29 | 1001.1 |
| 20260504180513 | 73 | 231 | 3.5 | 19.1 | 0.00 | 0.00 | 0.00 | 32 | 1001.1 |
| 20260504180032 | 72 | 210 | 7.8 | 19.1 | 0.00 | 0.00 | 0.00 | 31 | 1001.2 |
| 20260504175515 | 72 | 224 | 7.8 | 19.1 | 0.00 | 0.00 | 0.00 | 31 | 1001.2 |
| 20260504175015 | 72 | 212 | 6.1 | 19.1 | 0.00 | 0.00 | 0.00 | 33 | 1001.2 |
| 20260504174532 | 72 | 248 | 7.8 | 19.1 | 0.00 | 0.00 | 0.00 | 34 | 1001.3 |
| 20260504174016 | 72 | 221 | 6.1 | 16.5 | 0.00 | 0.00 | 0.00 | 32 | 1001.4 |
| 20260504173513 | 72 | 156 | 7.8 | 16.5 | 0.00 | 0.00 | 0.00 | 32 | 1001.5 |
| 20260504173030 | 72 | 208 | 5.2 | 14.8 | 0.00 | 0.00 | 0.00 | 34 | 1001.6 |
| 20260504172513 | 72 | 228 | 6.1 | 16.5 | 0.00 | 0.00 | 0.00 | 33 | 1001.7 |
| 20260504172013 | 71 | 233 | 6.1 | 16.5 | 0.00 | 0.00 | 0.00 | 34 | 1001.8 |
| 20260504171531 | 72 | 201 | 8.7 | 16.5 | 0.00 | 0.00 | 0.00 | 32 | 1001.9 |
| 20260504171018 | 71 | 214 | 4.3 | 15.6 | 0.00 | 0.00 | 0.00 | 33 | 1001.9 |
| 20260504170515 | 71 | 228 | 4.3 | 18.2 | 0.00 | 0.00 | 0.00 | 35 | 1002.1 |
| 20260504151017 | 64 | 172 | 2.6 | 8.7 | 0.00 | 0.00 | 0.00 | 55 | 1003.6 |
| 20260504150514 | 63 | 163 | 2.6 | 8.7 | 0.00 | 0.00 | 0.00 | 55 | 1003.7 |
| 20260504141013 | 61 | 187 | 3.5 | 9.6 | 0.00 | 0.00 | 0.00 | 59 | 1003.9 |
| 20260504140516 | 60 | 0 | 3.5 | 11.3 | 0.00 | 0.00 | 0.00 | 60 | 1003.9 |
| 20260504130516 | 56 | 208 | 2.6 | 8.7 | 0.00 | 0.00 | 0.00 | 68 | 1004.5 |
| 20260504110512 | 49 | 186 | 1.7 | 3.5 | 0.00 | 0.00 | 0.00 | 78 | 1004.4 |
| 20260504100517 | 49 | 188 | 0.9 | 5.2 | 0.00 | 0.00 | 0.00 | 77 | 1004.4 |
| 20260504081534 | 49 | 213 | 0.9 | 7.8 | 0.00 | 0.00 | 0.00 | 74 | 1005.2 |
| 20260504081015 | 49 | 169 | 1.7 | 7.8 | 0.00 | 0.00 | 0.00 | 74 | 1005.2 |
| 20260504080513 | 49 | 167 | 2.6 | 7.8 | 0.00 | 0.00 | 0.00 | 74 | 1005.3 |